Regional Weather Roundup
Issued by NWS

Home | Current Version | Previous Version | Graphics & Text | Print | Product List | Glossary On
Versions: 1 2 3 4 5 6 7 8 9 10 11 12 13 14 15 16 17 18 19 20 21 22 23 24 25 26 27 28 29 30 31 32 33 34 35 36 37 38 39 40 41 42 43 44 45 46 47 48 49 50
000
ASUS45 KABQ 290110
RWRNM
NEW MEXICO REGIONAL WEATHER ROUNDUP
NATIONAL WEATHER SERVICE ALBUQUERQUE NM
700 PM MDT FRI AUG 28 2015

NOTE: "FAIR" MEANS FEW OR NO CLOUDS BELOW 12,000 FEET AGL WITH NO
       SIGNIFICANT WEATHER OR OBSTRUCTIONS TO VISION.

      THIS PRODUCT IS RELEASED AS TWO VERSIONS.  ONE VERSION NEAR
      THE TOP OF THE HOUR CONTAINING PRELIMINARY DATA FROM ALBUQUERQUE
      AND OTHER STATIONS.  A FINAL VERSION WITH ADDITIONAL DATA IS
      ISSUED ABOUT 10 MINUTES AFTER THE HOUR.

NMZ501-503-504-510>518-290200-
NORTHWEST PLATEAU/NORTHCENTRAL MOUNTAINS

CITY           SKY/WX    TMP DP  RH WIND       PRES   REMARKS
FARMINGTON     CLEAR     87  32  14 W9G21     30.10F
LOS ALAMOS     MOCLDY    72  43  35 SW9       30.30R
SANTA FE       PTCLDY    78  41  26 SE15      30.22S
TAOS           PTCLDY    73  39  29 SE21      30.30R
ANGEL FIRE     FAIR      58  50  73 CALM      30.44S

$$
NMZ402-403-502-505>509-290200-
WESTCENTRAL MOUNTAINS/SOUTHWEST MOUNTAINS

CITY           SKY/WX    TMP DP  RH WIND       PRES   REMARKS
GALLUP         CLEAR     81  40  23 W7        30.22F
GRANTS         PTCLDY    78  41  26 N10       30.24R
SILVER CITY      N/A     81  48  32 CALM      30.15S

$$
NMZ407-409-411-412-290200-
SOUTHERN DESERTS

CITY           SKY/WX    TMP DP  RH WIND       PRES   REMARKS
DEMING         MOCLDY    90  48  23 CALM      30.03S
LAS CRUCES     MOCLDY    86  51  29 CALM      30.06S
HOLLOMAN AFB   CLOUDY    85  51  31 N13       30.05R
ALAMOGORDO     MOCLDY    86  48  26 N14G22    30.06R
T OR C         CLOUDY    87  49  26 W8        30.07R

$$
NMZ519>523-290200-
CENTRAL VALLEYS/CENTRAL HIGHLANDS

CITY           SKY/WX    TMP DP  RH WIND       PRES   REMARKS
ALBUQUERQUE    PTCLDY    79  51  37 E24G35    30.13R
DOUBLE EAGLE   MOCLDY    82  48  30 E14       30.17R
MORIARTY ARPT  MOCLDY    71  47  42 E6        30.26S
CLINES CORNERS MOCLDY    65  49  56 E5        30.29S
BELEN          MOCLDY    82  48  30 E23G30    30.12R
SOCORRO        FAIR      86  41  20 E7        30.08S

$$
NMZ524>526-539-540-290200-
SOUTHCENTRAL MOUNTAINS

CITY           SKY/WX    TMP DP  RH WIND       PRES   REMARKS
RUIDOSO        CLOUDY    64  55  72 MISG      30.29S

$$
NMZ527>531-290200-
NORTHEAST HIGHLANDS/NORTHEAST PLAINS

CITY           SKY/WX    TMP DP  RH WIND       PRES   REMARKS
LAS VEGAS      CLOUDY    68  47  46 NE10      30.31S
RATON          MOCLDY    78  45  30 E3        30.26R
CLAYTON        CLOUDY    71  61  70 SW6       30.17S

$$
NMZ532>537-290200-
EASTCENTRAL PLAINS

CITY           SKY/WX    TMP DP  RH WIND       PRES   REMARKS
TUCUMCARI      CLOUDY    84  56  38 NE10      30.07R
CANNON AFB     MOCLDY    83  58  41 NE12      30.08R
CLOVIS AIRPORT MOCLDY    84  55  37 NE12      30.09R

$$
NMZ028-029-538-290200-
SOUTHEAST PLAINS

CITY           SKY/WX    TMP DP  RH WIND       PRES   REMARKS
ROSWELL        CLOUDY    86  52  30 W12       29.99S
ARTESIA        CLOUDY    86  54  32 SW10      30.01R
CARLSBAD       CLOUDY    85  58  39 W9        29.97


$$


USA.gov is the U.S. government's official web portal to all federal, state and local government web resources and services.